Location: Lake Zurich
(42.1970°N, 88.0930°W)
Time: 02:01:45
(UTC-06:00)

Amateur Radio Satellites - All Passes

Search period start: 20 January 2017 01:31
Search period end: 21 January 2017 01:31
Location: Lake Zurich, 42.1970°N, 88.0930°W

Satellite Date Start Highest point End Downlink Frequencies (MHz)
Time Altitude Azimuth
BUGSAT 1 20 Jan 01:35:07 01:37:51 18° 294° (WNW) 01:40:34 437.445
BEESAT 2 20 Jan 01:36:28 01:40:32 88° 57° (ENE) 01:44:34 435.950
PHONESAT 2.4 20 Jan 01:37:09 01:38:31 14° 156° (SSE) 01:39:53 2401.200-2431.200
BEESAT 20 Jan 01:37:25 01:42:08 72° 74° (ENE) 01:46:55 436.000
SWISSCUBE 20 Jan 01:38:58 01:43:42 83° 78° (ENE) 01:48:30 437.505
MOZHAYETS 4 20 Jan 01:39:31 01:43:02 22° 66° (ENE) 01:46:34
M-CUBED/EXP-1 PRIME 20 Jan 01:48:59 01:52:05 20° 62° (ENE) 01:55:04 437.505
Cosmos 2491 20 Jan 01:55:03 02:03:42 75° 94° (E) 02:12:24 435.465 / 435.565
RS-15 20 Jan 02:02:14 02:13:11 38° 327° (NNW) 02:24:28 29.354- 29.394
Oscar 19 20 Jan 02:02:44 02:07:42 48° 289° (WNW) 02:12:38 437.125/150
CUSAT 1 20 Jan 02:05:52 02:10:00 25° 83° (E) 02:14:59 437.405
Gurwin Techsat 1B 20 Jan 02:11:54 02:17:13 75° 286° (WNW) 02:22:31 435.225
KKS-1 20 Jan 02:23:34 02:26:54 21° 65° (ENE) 02:30:15 437.445
AUBIESAT-1 20 Jan 02:25:14 02:29:09 36° 66° (ENE) 02:32:51 437.475
ISS 20 Jan 02:25:43 02:28:02 18° 11° (N) 02:30:21 145.825
CUBESAT XI-V 20 Jan 02:26:05 02:27:30 11° 60° (ENE) 02:28:55 437.345
BEESAT 3 20 Jan 02:33:23 02:34:08 10° 252° (WSW) 02:34:52 437.485
ITUPSAT 1 20 Jan 02:40:57 02:45:00 28° 264° (W) 02:49:06 437.325
Cosmos 2504 20 Jan 02:43:42 02:50:46 49° 270° (W) 02:57:34 435.465 / 435.565
ITAMSAT 1 20 Jan 02:44:11 02:49:10 45° 99° (E) 02:54:09 435.822/435.867
DANDE 20 Jan 02:53:06 02:54:53 12° 78° (ENE) 02:56:50 436.750
AO-7 20 Jan 02:58:47 03:06:41 43° 100° (E) 03:14:29 29.400- 29.500
YUBILEINY 20 Jan 03:04:37 03:11:08 24° 280° (W) 03:17:37 435.215
PCSat 20 Jan 03:08:10 03:09:53 11° 326° (NNW) 03:11:36 145.827
PHONESAT 2.4 20 Jan 03:10:03 03:12:16 44° 171° (S) 03:14:29 2401.200-2431.200
MOZHAYETS 4 20 Jan 03:15:42 03:19:56 38° 262° (W) 03:24:15
STARS 20 Jan 03:17:30 03:21:28 34° 69° (ENE) 03:25:26 437.465
BEESAT 20 Jan 03:18:34 03:20:25 12° 270° (W) 03:22:17 436.000
SWISSCUBE 20 Jan 03:21:33 03:22:06 10° 272° (W) 03:22:39 437.505
M-CUBED/EXP-1 PRIME 20 Jan 03:22:08 03:26:19 42° 256° (WSW) 03:30:17 437.505
AIST 2 20 Jan 03:29:29 03:33:19 31° 48° (NE) 03:37:08 435.215
CUSAT 1 20 Jan 03:46:25 03:51:21 46° 288° (WNW) 03:57:42 437.405
Cosmos 2491 20 Jan 03:54:42 04:01:28 24° 296° (WNW) 04:08:16 435.465 / 435.565
Gurwin Techsat 1B 20 Jan 03:54:58 03:56:14 11° 304° (NW) 03:57:30 435.225
KKS-1 20 Jan 03:59:04 04:03:14 38° 262° (W) 04:07:23 437.445
CUBESAT XI-V 20 Jan 03:59:26 04:04:08 87° 254° (WSW) 04:08:53 437.345
AUBIESAT-1 20 Jan 04:00:22 04:03:35 20° 260° (W) 04:06:40 437.475
ISS 20 Jan 04:01:51 04:05:03 54° 30° (NNE) 04:08:15 145.825
BRITE-PL 20 Jan 04:06:05 04:10:05 25° 92° (E) 04:13:49 437.365/2234.400
RS-15 20 Jan 04:21:08 04:30:41 25° 2° (N) 04:40:14 29.354- 29.394
ITAMSAT 1 20 Jan 04:24:15 04:28:22 24° 296° (WNW) 04:32:28 435.822/435.867
DANDE 20 Jan 04:32:52 04:36:34 49° 286° (WNW) 04:41:33 436.750
PHONESAT 2.4 20 Jan 04:43:59 04:46:13 46° 188° (S) 04:48:26 2401.200-2431.200
NOAA 15 20 Jan 04:47:11 04:48:44 11° 88° (E) 04:50:15 137.62
AO-7 20 Jan 04:51:37 04:59:26 46° 298° (WNW) 05:07:13 29.400- 29.500
STARS 20 Jan 04:54:29 04:57:53 22° 266° (W) 05:01:17 437.465
HORYU 2 20 Jan 04:59:02 05:03:10 36° 98° (E) 05:07:18 437.375
Cosmos 2499 20 Jan 05:05:34 05:10:29 19° 64° (ENE) 05:15:18 435.465 / 435.565
AIST 2 20 Jan 05:08:05 05:11:43 28° 246° (WSW) 05:15:20 435.215
O/OREOS (USA 219) 20 Jan 05:18:53 05:22:14 21° 102° (ESE) 05:25:35 437.305
CUTE-I 20 Jan 05:30:48 05:35:27 29° 96° (E) 05:40:03 437.470
STRAND 1 20 Jan 05:34:29 05:38:55 31° 67° (ENE) 05:43:23 437.568
ISS 20 Jan 05:38:57 05:41:16 18° 227° (SW) 05:43:34 145.825
BRITE-PL 20 Jan 05:44:12 05:48:39 34° 292° (WNW) 05:52:47 437.365/2234.400
GOMX 1 20 Jan 05:49:57 05:54:25 71° 284° (WNW) 05:58:37 467.674
GONETS M04 20 Jan 05:53:32 06:01:41 39° 71° (ENE) 06:09:47
LilacSat-2 20 Jan 05:57:36 06:01:26 63° 101° (E) 06:05:17 437.200
Cubesat XI-IV 20 Jan 06:13:25 06:18:45 71° 102° (ESE) 06:24:05 437.490
NOAA 18 20 Jan 06:14:42 06:19:49 39° 98° (E) 06:24:53 137.9125
CUTE 1.7 + AOD 2 20 Jan 06:18:12 06:18:46 10° 88° (E) 06:19:20 437.475
PHONESAT 2.4 20 Jan 06:18:29 06:19:59 15° 203° (SSW) 06:21:29 2401.200-2431.200
NOAA 15 20 Jan 06:23:50 06:29:12 89° 280° (W) 06:34:30 137.62
CINEMA 3 20 Jan 06:25:26 06:28:47 23° 95° (E) 06:32:11 145.822/145.860
DOVE 4 20 Jan 06:30:58 06:35:09 66° 285° (WNW) 06:39:14 437.250
HORYU 2 20 Jan 06:36:04 06:39:30 22° 294° (WNW) 06:42:56 437.375
RS-15 20 Jan 06:36:31 06:47:59 40° 35° (NE) 06:59:07 29.354- 29.394
CANX-2 20 Jan 06:44:45 06:48:19 25° 94° (E) 06:51:51 2200.000
AO-7 20 Jan 06:48:10 06:50:04 11° 321° (NW) 06:51:58 29.400- 29.500
HO-68 20 Jan 06:50:10 06:56:31 33° 96° (E) 07:02:49 435.675
SEEDS 20 Jan 06:56:56 07:00:02 19° 93° (E) 07:03:06 437.485
O/OREOS (USA 219) 20 Jan 06:57:12 07:01:22 37° 299° (WNW) 07:05:34 437.305
Cosmos 2499 20 Jan 06:57:19 07:04:28 75° 265° (W) 07:11:29 435.465 / 435.565
COMPASS 1 20 Jan 07:03:33 07:05:58 15° 91° (E) 07:08:22 437.405
CUTE-I 20 Jan 07:10:40 07:15:31 37° 292° (WNW) 07:20:22 437.470
STRAND 1 20 Jan 07:13:31 07:18:02 32° 264° (W) 07:22:36 437.568
AAUSAT CUBESAT 2 20 Jan 07:15:08 07:17:36 15° 91° (E) 07:20:03 437.432
CUBEBUG 2 20 Jan 07:22:23 07:25:53 23° 95° (E) 07:29:27 437.445
LilacSat-2 20 Jan 07:34:16 07:35:12 11° 297° (WNW) 07:36:08 437.200
SO-50 20 Jan 07:45:59 07:50:42 75° 121° (ESE) 07:55:22 436.795
PRISM 20 Jan 07:46:50 07:50:36 34° 70° (ENE) 07:54:22 437.425
FUNcube-1 20 Jan 07:48:38 07:51:23 16° 92° (E) 07:54:09 145.935
GONETS M04 20 Jan 07:50:18 07:58:38 49° 272° (W) 08:06:58
CUTE 1.7 + AOD 2 20 Jan 07:50:47 07:55:04 71° 285° (WNW) 07:59:20 437.475
UWE-3 20 Jan 07:51:12 07:55:05 30° 96° (E) 07:59:02 435.000/436.395/437.385
Cubesat XI-IV 20 Jan 07:54:56 07:58:14 17° 300° (WNW) 08:01:32 437.490
NOAA 18 20 Jan 07:55:39 08:00:18 29° 295° (WNW) 08:04:56 137.9125
CINEMA 3 20 Jan 08:02:18 08:05:57 30° 290° (WNW) 08:09:40 145.822/145.860
NOAA 15 20 Jan 08:05:48 08:08:10 13° 303° (WNW) 08:10:32 137.62
UNISAT 6 20 Jan 08:06:23 08:09:08 17° 65° (ENE) 08:11:54 437.425
ZACube-1 20 Jan 08:10:40 08:14:32 30° 96° (E) 08:18:27 437.345
TIGRISAT 20 Jan 08:19:16 08:22:29 21° 66° (ENE) 08:25:43 435.000
CANX-2 20 Jan 08:20:24 08:24:08 29° 291° (WNW) 08:27:52 2200.000
PCSat 20 Jan 08:24:22 08:28:45 24° 46° (NE) 08:33:07 145.827
SEEDS 20 Jan 08:31:54 08:35:50 37° 289° (WNW) 08:39:43 437.485
ANTELSAT 20 Jan 08:33:47 08:37:33 32° 69° (ENE) 08:41:20 437.575/2403.000
DELFI C3 20 Jan 08:34:54 08:37:05 14° 91° (E) 08:39:13 145.870
HO-68 20 Jan 08:37:34 08:44:25 49° 294° (WNW) 08:51:12 435.675
COMPASS 1 20 Jan 08:37:42 08:41:46 47° 287° (WNW) 08:45:47 437.405
Oscar 11 20 Jan 08:47:21 08:51:41 63° 100° (E) 08:56:00 145.826/435.025
AAUSAT CUBESAT 2 20 Jan 08:49:18 08:53:19 45° 287° (WNW) 08:57:17 437.432
RS-15 20 Jan 08:49:25 09:01:46 78° 241° (WSW) 09:13:35 29.354- 29.394
Cosmos 2499 20 Jan 08:54:38 08:56:09 11° 285° (WNW) 08:57:39 435.465 / 435.565
CUBEBUG 2 20 Jan 08:58:41 09:02:31 32° 290° (WNW) 09:06:27 437.445
PRISM 20 Jan 09:22:48 09:25:57 20° 266° (W) 09:29:06 437.425
FUNcube-1 20 Jan 09:23:38 09:27:51 48° 287° (WNW) 09:32:08 145.935
UWE-3 20 Jan 09:27:51 09:31:25 25° 292° (WNW) 09:35:04 435.000/436.395/437.385
SO-50 20 Jan 09:28:27 09:31:40 18° 320° (NW) 09:34:53 436.795
JAS-2 20 Jan 09:34:19 09:39:23 47° 69° (ENE) 09:44:59 435.910
QB50P1 20 Jan 09:37:05 09:39:39 16° 64° (ENE) 09:42:13 145.935-145.965
POLYITAN 1 20 Jan 09:40:55 09:43:42 18° 65° (ENE) 09:46:30 437.675
UNISAT 6 20 Jan 09:41:26 09:45:31 44° 261° (W) 09:49:36 437.425
QB50P2 20 Jan 09:41:55 09:44:55 19° 66° (ENE) 09:47:55 145.880/145.840
ZACube-1 20 Jan 09:47:04 09:50:42 26° 292° (WNW) 09:54:23 437.345
TIGRISAT 20 Jan 09:55:07 09:58:59 34° 263° (W) 10:02:52 435.000
HUMSAT D 20 Jan 09:59:14 10:03:32 74° 103° (ESE) 10:07:49 437.325/437.525
BY70-1 20 Jan 10:02:02 10:03:55 14° 92° (E) 10:05:45 436.1900
POPSAT HIP 1 20 Jan 10:02:46 10:06:22 28° 69° (ENE) 10:09:58 437.405
PCSat 20 Jan 10:07:11 10:12:31 59° 245° (WSW) 10:17:50 145.827
DELFI C3 20 Jan 10:08:17 10:12:07 44° 287° (WNW) 10:15:54 145.870
ANTELSAT 20 Jan 10:10:59 10:14:18 22° 266° (W) 10:17:39 437.575/2403.000
DUCHIFAT 1 20 Jan 10:13:41 10:17:23 32° 70° (ENE) 10:21:07 145.980
NANOSAT C BR1 20 Jan 10:18:53 10:22:48 40° 71° (ENE) 10:26:44 145.865
Oscar 11 20 Jan 10:25:10 10:27:17 13° 297° (WNW) 10:29:24 145.826/435.025
ESTCUBE 1 20 Jan 10:48:48 10:52:54 32° 97° (E) 10:56:57 437.505/2401.250
BUGSAT 1 20 Jan 10:49:12 10:52:42 28° 69° (ENE) 10:56:10 437.445
VELOX 1 20 Jan 11:01:50 11:04:31 16° 92° (E) 11:07:10 145.980
RS-15 20 Jan 11:04:31 11:12:04 19° 263° (W) 11:19:28 29.354- 29.394
QB50P1 20 Jan 11:11:00 11:15:02 46° 261° (W) 11:19:06 145.935-145.965
POLYITAN 1 20 Jan 11:15:13 11:19:11 41° 261° (W) 11:23:10 437.675
QB50P2 20 Jan 11:16:32 11:20:26 37° 262° (W) 11:24:22 145.880/145.840
JAS-2 20 Jan 11:20:45 11:24:52 22° 269° (W) 11:29:17 435.910
SPROUT 20 Jan 11:30:55 11:34:23 24° 95° (E) 11:37:50 437.525
BY70-1 20 Jan 11:31:25 11:34:20 28° 290° (WNW) 11:37:05 436.1900
DX 1 20 Jan 11:34:19 11:37:06 17° 93° (E) 11:39:52 434.975-435.025
UKube-1 20 Jan 11:34:44 11:36:18 12° 90° (E) 11:37:51 .
HUMSAT D 20 Jan 11:37:11 11:38:32 11° 298° (WNW) 11:39:52 437.325/437.525
POPSAT HIP 1 20 Jan 11:38:41 11:42:07 24° 265° (W) 11:45:33 437.405
Oscar 19 20 Jan 11:41:16 11:45:52 33° 67° (ENE) 11:50:29 437.125/150
CUBEBUG 1 20 Jan 11:47:21 11:51:43 82° 105° (ESE) 11:56:01 437.445
DUCHIFAT 1 20 Jan 11:49:56 11:53:07 21° 266° (W) 11:56:19 145.980
Gurwin Techsat 1B 20 Jan 11:54:58 11:59:12 25° 64° (ENE) 12:03:26 435.225
NANOSAT C BR1 20 Jan 11:55:57 11:58:41 17° 267° (W) 12:01:27 145.865
AISAT 20 Jan 12:03:26 12:07:51 78° 103° (ESE) 12:12:12 437.250
Cosmos 2491 20 Jan 12:05:00 12:13:03 38° 71° (ENE) 12:21:05 435.465 / 435.565
AO-7 20 Jan 12:10:44 12:15:01 15° 44° (NE) 12:19:18 29.400- 29.500
50 SAT 20 Jan 12:15:17 12:18:52 85° 103° (ESE) 12:22:24 437.505
YUBILEINY 20 Jan 12:15:47 12:20:43 16° 75° (ENE) 12:25:38 435.215
BUGSAT 1 20 Jan 12:24:48 12:28:03 23° 265° (W) 12:31:17 437.445
ESTCUBE 1 20 Jan 12:25:50 12:29:33 25° 293° (WNW) 12:33:14 437.505/2401.250
ITAMSAT 1 20 Jan 12:28:41 12:29:09 10° 56° (NE) 12:29:37 435.822/435.867
CUSAT 1 20 Jan 12:36:44 12:43:23 28° 65° (ENE) 12:49:43 437.405
VELOX 1 20 Jan 12:36:59 12:41:14 48° 288° (WNW) 12:45:27 145.980
TISAT 1 20 Jan 12:58:55 13:02:39 31° 97° (E) 13:06:22 437.305
SPROUT 20 Jan 13:06:35 13:10:17 30° 291° (WNW) 13:13:59 437.525
UKube-1 20 Jan 13:08:28 13:12:44 62° 287° (WNW) 13:16:58 .
DX 1 20 Jan 13:09:22 13:13:30 45° 289° (WNW) 13:17:37 434.975-435.025
Oscar 19 20 Jan 13:20:32 13:25:08 32° 264° (W) 13:29:47 437.125/150
DANDE 20 Jan 13:25:25 13:31:38 25° 66° (ENE) 13:38:13 436.750
CUBEBUG 1 20 Jan 13:26:38 13:27:19 10° 300° (WNW) 13:27:58 437.445
AO-85 20 Jan 13:29:14 13:33:54 58° 119° (ESE) 13:38:13 145.980
Cosmos 2504 20 Jan 13:29:28 13:36:21 28° 83° (E) 13:42:57 435.465 / 435.565
AIST 1 20 Jan 13:31:07 13:35:24 60° 95° (E) 13:39:42
Gurwin Techsat 1B 20 Jan 13:33:48 13:38:52 45° 261° (W) 13:43:58 435.225
BEESAT 20 Jan 13:38:03 13:41:14 17° 92° (E) 13:44:24 436.000
SWISSCUBE 20 Jan 13:39:23 13:42:56 20° 93° (E) 13:46:29 437.505
AISAT 20 Jan 13:42:21 13:43:39 11° 300° (WNW) 13:44:57 437.250
AO-7 20 Jan 13:57:57 14:06:07 62° 66° (ENE) 14:14:20 29.400- 29.500
Cosmos 2491 20 Jan 14:01:45 14:10:02 49° 271° (W) 14:18:21 435.465 / 435.565
ITAMSAT 1 20 Jan 14:02:33 14:07:41 73° 74° (ENE) 14:12:52 435.822/435.867
YUBILEINY 20 Jan 14:07:14 14:16:03 83° 96° (E) 14:24:56 435.215
CUSAT 1 20 Jan 14:18:01 14:25:58 69° 265° (W) 14:33:18 437.405
TISAT 1 20 Jan 14:34:51 14:38:07 23° 293° (WNW) 14:41:23 437.305
SO-50 20 Jan 14:38:05 14:40:14 13° 35° (NE) 14:42:23 436.795
ITUPSAT 1 20 Jan 14:39:51 14:44:40 72° 103° (ESE) 14:49:28 437.325
DANDE 20 Jan 15:07:10 15:14:58 78° 263° (W) 15:23:19 436.750
MOZHAYETS 4 20 Jan 15:09:42 15:14:12 47° 99° (E) 15:18:40
AO-85 20 Jan 15:11:14 15:14:35 20° 316° (NW) 15:17:48 145.980
AIST 1 20 Jan 15:11:30 15:13:25 13° 292° (WNW) 15:15:19
BEESAT 20 Jan 15:14:38 15:19:17 51° 288° (WNW) 15:23:55 436.000
BRITE-PL 20 Jan 15:15:48 15:20:55 36° 69° (ENE) 15:25:58 437.365/2234.400
SWISSCUBE 20 Jan 15:16:21 15:20:55 44° 289° (WNW) 15:25:27 437.505
Cosmos 2504 20 Jan 15:20:33 15:29:10 64° 281° (W) 15:37:18 435.465 / 435.565
GOMX 1 20 Jan 15:21:37 15:24:58 17° 63° (ENE) 15:28:13 467.674
O/OREOS (USA 219) 20 Jan 15:27:05 15:31:25 44° 63° (ENE) 15:35:44 437.305
BEESAT 2 20 Jan 15:30:26 15:32:14 13° 109° (ESE) 15:34:01 435.950
AUBIESAT-1 20 Jan 15:37:56 15:40:18 18° 100° (E) 15:42:36 437.475
ITAMSAT 1 20 Jan 15:45:08 15:47:41 14° 270° (W) 15:50:14 435.822/435.867
KKS-1 20 Jan 15:49:11 15:53:17 36° 98° (E) 15:57:22 437.445
AO-7 20 Jan 15:52:10 15:59:18 31° 264° (W) 16:06:30 29.400- 29.500
CUBESAT XI-V 20 Jan 15:56:09 15:59:50 23° 93° (E) 16:03:30 437.345
HORYU 2 20 Jan 15:57:24 16:01:25 36° 70° (ENE) 16:05:28 437.375
Cubesat XI-IV 20 Jan 15:58:29 16:01:49 17° 60° (ENE) 16:05:09 437.490
DOVE 4 20 Jan 16:00:56 16:03:40 15° 64° (ENE) 16:06:20 437.250
CUSAT 1 20 Jan 16:02:58 16:06:23 13° 284° (WNW) 16:09:43 437.405
NOAA 18 20 Jan 16:05:10 16:07:08 12° 55° (NE) 16:09:05 137.9125
NOAA 15 20 Jan 16:06:28 16:10:21 21° 62° (ENE) 16:14:16 137.62
YUBILEINY 20 Jan 16:07:28 16:13:58 22° 297° (WNW) 16:20:32 435.215
SO-50 20 Jan 16:16:59 16:21:31 74° 55° (NE) 16:25:58 436.795
ITUPSAT 1 20 Jan 16:19:23 16:21:55 14° 299° (WNW) 16:24:25 437.325
BEESAT 3 20 Jan 16:20:34 16:24:27 75° 304° (NW) 16:28:24 437.485
M-CUBED/EXP-1 PRIME 20 Jan 16:34:59 16:38:18 55° 291° (WNW) 16:41:29 437.505
LilacSat-2 20 Jan 16:40:02 16:43:24 31° 71° (ENE) 16:46:47 437.200
STARS 20 Jan 16:41:57 16:46:17 62° 102° (ESE) 16:50:36 437.465
MOZHAYETS 4 20 Jan 16:47:44 16:51:00 19° 296° (WNW) 16:54:16
DANDE 20 Jan 16:52:07 16:56:42 17° 279° (W) 17:01:26 436.750
CUTE-I 20 Jan 16:52:57 16:58:04 50° 70° (ENE) 17:03:12 437.470
BRITE-PL 20 Jan 16:54:10 16:59:18 35° 265° (W) 17:04:25 437.365/2234.400
GOMX 1 20 Jan 16:57:08 17:02:32 69° 259° (WSW) 17:07:42 467.674
BEESAT 2 20 Jan 17:05:38 17:09:31 57° 306° (NW) 17:13:28 435.950
O/OREOS (USA 219) 20 Jan 17:07:24 17:10:27 18° 259° (W) 17:13:29 437.305
AUBIESAT-1 20 Jan 17:11:59 17:14:44 24° 296° (WNW) 17:17:27 437.475
HO-68 20 Jan 17:19:54 17:25:44 28° 59° (ENE) 17:31:33 435.675
Cosmos 2504 20 Jan 17:20:47 17:24:12 13° 302° (WNW) 17:27:33 435.465 / 435.565
KKS-1 20 Jan 17:26:15 17:29:38 22° 294° (WNW) 17:33:00 437.445
CINEMA 3 20 Jan 17:27:43 17:31:11 23° 68° (ENE) 17:34:35 145.822/145.860
CUBESAT XI-V 20 Jan 17:32:59 17:37:19 38° 290° (WNW) 17:41:36 437.345
HORYU 2 20 Jan 17:34:43 17:38:04 21° 266° (W) 17:41:26 437.375
DOVE 4 20 Jan 17:35:54 17:40:54 67° 259° (W) 17:45:37 437.250
Cubesat XI-IV 20 Jan 17:36:01 17:41:18 69° 257° (WSW) 17:46:38 437.490
CANX-2 20 Jan 17:38:22 17:41:25 20° 66° (ENE) 17:44:29 2200.000
NOAA 18 20 Jan 17:41:23 17:46:53 78° 74° (ENE) 17:52:23 137.9125
Cosmos 2499 20 Jan 17:44:27 17:49:13 17° 79° (E) 17:53:49 435.465 / 435.565
NOAA 15 20 Jan 17:44:33 17:49:43 54° 259° (W) 17:54:56 137.62
SEEDS 20 Jan 17:49:46 17:52:12 15° 64° (ENE) 17:54:39 437.485
COMPASS 1 20 Jan 17:55:55 17:57:22 12° 62° (ENE) 17:58:49 437.405
SO-50 20 Jan 17:59:37 18:01:20 12° 252° (WSW) 18:03:02 436.795
BEESAT 3 20 Jan 18:01:48 18:02:47 11° 324° (NW) 18:03:46 437.485
AAUSAT CUBESAT 2 20 Jan 18:06:58 18:08:27 12° 62° (ENE) 18:09:56 437.432
LilacSat-2 20 Jan 18:15:11 18:17:45 17° 267° (W) 18:20:21 437.200
STARS 20 Jan 18:19:57 18:22:07 14° 298° (WNW) 18:24:16 437.465
CUBEBUG 2 20 Jan 18:21:34 18:24:36 20° 67° (ENE) 18:27:39 437.445
CUTE-I 20 Jan 18:34:26 18:38:22 21° 267° (W) 18:42:21 437.470
CUTE 1.7 + AOD 2 20 Jan 18:43:21 18:47:35 85° 77° (ENE) 18:51:53 437.475
FUNcube-1 20 Jan 18:45:47 18:47:40 13° 63° (ENE) 18:49:34 145.935
UWE-3 20 Jan 18:49:06 18:52:29 25° 68° (ENE) 18:55:52 435.000/436.395/437.385
GONETS M04 20 Jan 18:55:20 19:03:19 43° 87° (E) 19:11:23
CINEMA 3 20 Jan 19:04:14 19:08:12 32° 263° (W) 19:12:03 145.822/145.860
AIST 2 20 Jan 19:05:06 19:09:05 52° 119° (ESE) 19:13:09 435.215
HO-68 20 Jan 19:05:49 19:12:56 63° 257° (WSW) 19:20:06 435.675
ZACube-1 20 Jan 19:07:22 19:10:40 24° 68° (ENE) 19:14:01 437.345
CANX-2 20 Jan 19:13:02 19:16:59 38° 263° (W) 19:21:00 2200.000
STRAND 1 20 Jan 19:22:37 19:27:47 83° 103° (ESE) 19:32:57 437.568
SEEDS 20 Jan 19:23:22 19:27:28 51° 261° (W) 19:31:38 437.485
NOAA 18 20 Jan 19:25:21 19:28:07 14° 270° (W) 19:30:54 137.9125
COMPASS 1 20 Jan 19:28:09 19:32:20 69° 260° (W) 19:36:33 437.405
Cosmos 2499 20 Jan 19:32:50 19:41:19 88° 96° (E) 19:49:11 435.465 / 435.565
AAUSAT CUBESAT 2 20 Jan 19:39:12 19:43:20 67° 258° (WSW) 19:47:32 437.432
Oscar 11 20 Jan 19:42:16 19:46:25 49° 73° (ENE) 19:50:37 145.826/435.025
CUBEBUG 2 20 Jan 19:57:13 20:01:01 34° 263° (W) 20:04:49 437.445
FUNcube-1 20 Jan 20:19:21 20:23:24 57° 259° (W) 20:27:31 145.935
UWE-3 20 Jan 20:25:20 20:28:51 27° 265° (W) 20:32:25 435.000/436.395/437.385
ZACube-1 20 Jan 20:43:16 20:46:51 28° 264° (W) 20:50:28 437.345
ISS 20 Jan 20:43:59 20:45:18 12° 130° (SE) 20:46:35 145.825
AIST 2 20 Jan 20:44:49 20:47:51 19° 317° (NW) 20:50:55 435.215
HUMSAT D 20 Jan 20:50:38 20:54:37 51° 73° (ENE) 20:58:39 437.325/437.525
GONETS M04 20 Jan 20:51:57 21:00:05 43° 287° (WNW) 21:08:21
DELFI C3 20 Jan 20:53:36 20:57:36 77° 259° (W) 21:01:38 145.870
PRISM 20 Jan 21:02:27 21:06:28 49° 100° (E) 21:10:26 437.425
STRAND 1 20 Jan 21:03:45 21:06:16 14° 301° (WNW) 21:08:46 437.568
RS-15 20 Jan 21:07:17 21:13:13 15° 94° (E) 21:19:12 29.354- 29.394
Oscar 11 20 Jan 21:20:23 21:22:50 15° 269° (W) 21:25:19 145.826/435.025
Cosmos 2499 20 Jan 21:29:48 21:35:22 19° 296° (WNW) 21:40:44 435.465 / 435.565
UNISAT 6 20 Jan 21:32:06 21:36:10 34° 97° (E) 21:40:17 437.425
TIGRISAT 20 Jan 21:45:12 21:49:27 44° 99° (E) 21:53:46 435.000
BY70-1 20 Jan 21:45:40 21:48:35 48° 73° (ENE) 21:51:44 436.1900
ESTCUBE 1 20 Jan 21:48:39 21:52:40 32° 69° (ENE) 21:56:42 437.505/2401.250
VELOX 1 20 Jan 21:59:48 22:02:33 16° 63° (ENE) 22:05:18 145.980
AO-85 20 Jan 22:00:20 22:04:10 50° 53° (NE) 22:07:59 145.980
ANTELSAT 20 Jan 22:00:25 22:04:51 69° 102° (ESE) 22:09:22 437.575/2403.000
ISS 20 Jan 22:18:04 22:21:20 81° 329° (NNW) 22:24:35 145.825
SPROUT 20 Jan 22:25:06 22:28:14 20° 66° (ENE) 22:31:22 437.525
JAS-2 20 Jan 22:25:43 22:32:43 48° 99° (E) 22:40:09 435.910
HUMSAT D 20 Jan 22:28:36 22:30:32 13° 270° (W) 22:32:29 437.325/437.525
UKube-1 20 Jan 22:30:08 22:31:47 12° 61° (ENE) 22:33:26 .
DX 1 20 Jan 22:30:33 22:33:21 17° 63° (ENE) 22:36:07 434.975-435.025
PRISM 20 Jan 22:39:02 22:41:20 15° 297° (WNW) 22:43:37 437.425
CUBEBUG 1 20 Jan 22:43:16 22:47:39 71° 74° (ENE) 22:52:02 437.445
50 SAT 20 Jan 22:50:15 22:53:31 34° 71° (ENE) 22:56:48 437.505
QB50P1 20 Jan 22:55:18 22:58:49 25° 95° (E) 23:02:20 145.935-145.965
POLYITAN 1 20 Jan 22:59:29 23:03:10 28° 96° (E) 23:06:50 437.675
QB50P2 20 Jan 23:00:40 23:04:27 31° 97° (E) 23:08:13 145.880/145.840
AISAT 20 Jan 23:00:44 23:05:10 73° 75° (ENE) 23:09:36 437.250
BEESAT 3 20 Jan 23:01:35 23:02:35 11° 36° (NE) 23:03:34 437.485
PCSat 20 Jan 23:08:12 23:11:30 16° 104° (ESE) 23:14:48 145.827
UNISAT 6 20 Jan 23:09:10 23:12:42 24° 293° (WNW) 23:16:17 437.425
RS-15 20 Jan 23:11:29 23:23:09 69° 116° (ESE) 23:35:20 29.354- 29.394
POPSAT HIP 1 20 Jan 23:21:50 23:25:57 49° 100° (E) 23:30:02 437.405
TIGRISAT 20 Jan 23:22:44 23:25:50 19° 295° (WNW) 23:28:58 435.000
ESTCUBE 1 20 Jan 23:25:43 23:29:29 25° 265° (W) 23:33:15 437.505/2401.250
DUCHIFAT 1 20 Jan 23:32:04 23:36:13 55° 101° (E) 23:40:19 145.980
VELOX 1 20 Jan 23:34:14 23:38:35 52° 260° (W) 23:42:56 145.980
NANOSAT C BR1 20 Jan 23:37:48 23:42:01 71° 101° (ESE) 23:46:14 145.865
AIST 1 20 Jan 23:38:42 23:41:18 16° 70° (ENE) 23:43:53
ANTELSAT 20 Jan 23:39:02 23:41:02 13° 298° (WNW) 23:43:03 437.575/2403.000
AO-85 20 Jan 23:42:09 23:44:07 14° 250° (WSW) 23:46:05 145.980
BEESAT 2 20 Jan 23:46:30 23:48:30 13° 39° (NE) 23:50:30 435.950
TISAT 1 20 Jan 23:51:04 23:54:30 25° 68° (ENE) 23:57:56 437.305
ISS 20 Jan 23:55:40 23:58:12 20° 345° (NNW) 00:00:44 145.825
SPROUT 20 Jan 23:59:59 00:03:55 36° 262° (W) 00:07:52 437.525
UKube-1 21 Jan 00:02:55 00:07:14 71° 258° (WSW) 00:11:34 .
DX 1 21 Jan 00:04:54 00:09:08 49° 260° (W) 00:13:23 434.975-435.025
BUGSAT 1 21 Jan 00:04:54 00:08:47 44° 99° (E) 00:12:40 437.445
JAS-2 21 Jan 00:11:05 00:17:31 38° 294° (WNW) 00:24:25 435.910
ITUPSAT 1 21 Jan 00:13:27 00:14:34 11° 58° (ENE) 00:15:40 437.325
YUBILEINY 21 Jan 00:17:09 00:25:27 43° 73° (ENE) 00:33:38 435.215
CUBEBUG 1 21 Jan 00:23:21 00:24:23 11° 271° (W) 00:25:25 437.445
50 SAT 21 Jan 00:24:48 00:26:51 14° 267° (W) 00:28:53 437.505
QB50P1 21 Jan 00:30:57 00:34:33 28° 291° (WNW) 00:38:08 145.935-145.965
POLYITAN 1 21 Jan 00:35:22 00:38:51 25° 292° (WNW) 00:42:19 437.675
QB50P2 21 Jan 00:36:45 00:40:05 23° 293° (WNW) 00:43:26 145.880/145.840
BEESAT 3 21 Jan 00:36:55 00:40:56 72° 55° (NE) 00:44:54 437.485
AISAT 21 Jan 00:41:06 00:42:06 11° 271° (W) 00:43:07 437.250
BEESAT 21 Jan 00:44:50 00:48:28 22° 65° (ENE) 00:52:07 436.000
SWISSCUBE 21 Jan 00:46:15 00:50:07 25° 66° (ENE) 00:54:00 437.505
PCSat 21 Jan 00:48:52 00:54:16 70° 302° (WNW) 00:59:42 145.827
POPSAT HIP 1 21 Jan 00:58:48 01:01:20 16° 296° (WNW) 01:03:50 437.405
Cosmos 2491 21 Jan 01:06:55 01:14:54 43° 87° (E) 01:22:55 435.465 / 435.565
DUCHIFAT 1 21 Jan 01:09:14 01:11:25 14° 297° (WNW) 01:13:36 145.980
Cosmos 2504 21 Jan 01:13:12 01:20:18 47° 75° (ENE) 01:27:08 435.465 / 435.565
AIST 1 21 Jan 01:15:05 01:19:10 44° 267° (W) 01:23:11
NANOSAT C BR1 21 Jan 01:15:52 01:17:09 11° 299° (WNW) 01:18:27 145.865
BEESAT 2 21 Jan 01:22:47 01:26:52 86° 235° (SW) 01:30:53 435.950
